This demonstration page uses our WeatherBlox Daily Observations layout. Learn more.

Left ArrowRight Arrow

47.50024, -111.30081

Hourly Observations for March 7, 2015

Temp ( °F °C ) Dew Point ( °F °C ) Humidity (%) Winds ( mph kmh ) Pressure ( in mb ) Visibility ( mi km ) Precip ( " mm )
12:53 am 00:53 Clear 32 0 21 -6.1 64 64 E 6 9 30.26 1025 10 16 0.00 0.00
1:53 am 01:53 Clear 30 -1.1 21 -6.1 69 69 Calm 30.25 1024 10 16 0.00 0.00
2:53 am 02:53 Clear 30 -1.1 21 -6.1 69 69 E 5 7 30.23 1024 10 16 0.00 0.00
3:53 am 03:53 Clear 31 -0.6 21 -6.1 67 67 E 5 7 30.21 1023 10 16 0.00 0.00
4:53 am 04:53 Clear 29 -1.7 21 -6.1 72 72 E 3 6 30.22 1023 10 16 0.00 0.00
5:53 am 05:53 Clear 28 -2.2 22 -5.6 78 78 SSW 10 17 30.23 1024 10 16 0.00 0.00
6:53 am 06:53 Mostly Cloudy 34 1.1 24 -4.4 67 67 SSW 8 13 30.20 1023 10 16 0.00 0.00
7:53 am 07:53 Cloudy 37 2.8 25 -3.9 62 62 SW 10 17 30.20 1023 10 16 0.00 0.00
8:53 am 08:53 Mostly Cloudy 43 6.1 26 -3.3 51 51 WSW 7 11 30.19 1022 10 16 0.00 0.00
9:53 am 09:53 Cloudy 47 8.3 25 -3.9 42 42 W 13 20 30.21 1023 10 16 0.00 0.00
10:53 am 10:53 Cloudy 45 7.2 26 -3.3 48 48 N 6 9 30.22 1023 10 16 0.00 0.00
11:53 am 11:53 Cloudy 48 9 27 -3 43 43 NW 12 19 30.15 1021 10 16 0.00 0.00
12:53 pm 12:53 Cloudy 49 9.4 29 -1.7 46 46 NW 10 17 30.23 1024 10 16 0.00 0.00
1:53 pm 13:53 Mostly Cloudy 51 10.6 27 -2.8 39 39 NNW 5 7 30.21 1023 10 16 0.00 0.00
2:53 pm 14:53 Cloudy 49 9.4 26 -3.3 41 41 N 6 9 30.20 1023 10 16 0.00 0.00
3:53 pm 15:53 Cloudy 48 8.9 30 -1.1 50 50 E 9 15 30.21 1023 10 16 0.00 0.03
4:53 pm 16:53 Cloudy 48 8.9 28 -2.2 46 46 NE 3 6 30.21 1023 10 16 0.00 0.00
5:53 pm 17:53 Mostly Cloudy 44 6.7 30 -1.1 58 58 SSE 7 11 30.22 1023 10 16 0.00 0.00
6:53 pm 18:53 Cloudy 40 4.4 28 -2.2 63 63 Calm 30.21 1023 10 16 0.00 0.00
7:53 pm 19:53 Mostly Cloudy 35 1.7 26 -3.3 70 70 S 5 7 30.21 1023 10 16 0.00 0.00
8:53 pm 20:53 Partly Cloudy 33 0.6 26 -3.3 75 75 S 9 15 30.18 1022 10 16 0.00 0.00
9:53 pm 21:53 Cloudy 37 2.8 29 -1.7 73 73 S 9 15 30.16 1021 10 16 0.00 0.00
10:53 pm 22:53 Mostly Cloudy 34 1.1 28 -2.2 79 79 S 8 13 30.16 1021 10 16 0.00 0.00
11:53 pm 23:53 Mostly Clear 34 1.1 28 -2.2 79 79 SSW 12 19 30.14 1021 10 16 0.00 0.00

Powered by AerisWeather